Weather History for Newport News, VA

Change the Weather History Date:

Tuesday, February 26, 2013

  Actual Average Record
Temperature  
Mean Temperature 45 °F -  
Max Temperature 62 °F 53 °F 77 °F (1977)
Min Temperature 30 °F 33 °F 14 °F (1967)
Degree Days  
Heating Degree Days 20    
Moisture  
Dew Point 45 °F    
Average Humidity 80    
Maximum Humidity 88    
Minimum Humidity 71    
Precipitation  
Precipitation 0.89 in - - ()
Sea Level Pressure  
Sea Level Pressure 29.85 in    
Wind  
Wind Speed 10 mph (East)    
Max Wind Speed 25 mph    
Max Gust Speed 39 mph    
Visibility 5 miles    
Events Rain    
Averages and records for this station are not official NWS values.
T = Trace of Precipitation, MM = Missing Value Source: NWS Daily Summary

Daily Weather History Graph

Daily Weather History Graph

Search for Another Location

Airport:

Trip Planner

Search our weather history database for the weather conditions in past years. The results will help you decide how hot, cold, wet, or windy it might be!

Date:

Astronomy

Feb. 26, 2013 Rise Set
Actual Time 6:40 AM EST 5:57 PM EST
Civil Twilight 6:14 AM EST 6:23 PM EST
Nautical Twilight 5:44 AM EST 6:53 PM EST
Astronomical Twilight 5:14 AM EST 7:23 PM EST
Moon 7:08 PM EST (2/26) 6:44 AM EST (2/26)
Length of Visible Light 12h 09m
Length of Day
11h 16m
Full, 99% of the Moon is Illuminated
Feb 26
Full
Mar 4
Last Quarter
Mar 11
New
Mar 19
First Quarter
Mar 27
Full

Hourly Weather History & Observations

Time (EST) Temp. Windchill Dew Point Humidity Pressure Visibility Wind Dir Wind Speed Gust Speed Precip Events Conditions
12:54 AM 30.9 °F - 24.1 °F 76% 30.19 in 9.0 mi Calm Calm - N/A   Clear
1:54 AM 30.9 °F - 25.0 °F 79% 30.20 in 7.0 mi Calm Calm - N/A   Clear
2:54 AM 32.0 °F - 27.0 °F 82% 30.18 in 6.0 mi North - - N/A   Haze
3:54 AM 37.0 °F 32.4 °F 28.9 °F 73% 30.16 in 10.0 mi NE 5.8 mph - N/A   Clear
4:54 AM 37.9 °F 31.5 °F 30.0 °F 73% 30.14 in 10.0 mi ENE 9.2 mph - N/A   Clear
5:54 AM 39.0 °F 33.4 °F 30.9 °F 73% 30.16 in 10.0 mi ENE 8.1 mph - N/A   Clear
6:54 AM 39.9 °F 34.5 °F 33.1 °F 77% 30.14 in 10.0 mi ENE 8.1 mph - N/A   Clear
7:54 AM 42.1 °F 36.1 °F 35.1 °F 76% 30.13 in 9.0 mi ENE 10.4 mph - N/A   Overcast
8:54 AM 45.0 °F 40.6 °F 37.0 °F 74% 30.14 in 9.0 mi ENE 8.1 mph - N/A   Mostly Cloudy
9:54 AM 46.9 °F - 37.9 °F 71% 30.12 in 10.0 mi ENE 11.5 mph - N/A   Overcast
10:54 AM 46.9 °F - 39.0 °F 74% 30.07 in 10.0 mi ENE 15.0 mph - N/A   Overcast
11:54 AM 50.0 °F - 41.0 °F 71% 30.04 in 10.0 mi ENE 12.7 mph - 0.00 in Rain Light Rain
12:34 PM 50.0 °F - 42.8 °F 76% 29.98 in 6.0 mi East 15.0 mph - 0.00 in Rain Light Rain
12:54 PM 50.0 °F - 43.0 °F 77% 29.97 in 5.0 mi ENE 12.7 mph - 0.02 in Rain Light Rain
1:54 PM 52.0 °F - 46.9 °F 83% 29.94 in 2.5 mi East 10.4 mph 19.6 mph 0.11 in Rain Rain
2:02 PM 51.8 °F - 46.4 °F 82% 29.94 in 2.5 mi East 18.4 mph 21.9 mph 0.02 in Rain Rain
2:22 PM 51.8 °F - 46.4 °F 82% 29.94 in 3.0 mi ESE 15.0 mph 21.9 mph 0.07 in Rain Light Rain
2:54 PM 51.1 °F - 45.0 °F 80% 29.92 in 3.0 mi East 19.6 mph 28.8 mph 0.12 in Rain Rain
3:23 PM 51.8 °F - 46.4 °F 82% 29.88 in 2.5 mi East 12.7 mph 25.3 mph 0.03 in Rain Rain
3:31 PM 51.8 °F - 46.4 °F 82% 29.87 in 3.0 mi East 16.1 mph 20.7 mph 0.05 in Rain Light Rain
3:54 PM 52.0 °F - 46.9 °F 83% 29.83 in 3.0 mi ESE 19.6 mph 29.9 mph 0.07 in Rain Light Rain
4:02 PM 51.8 °F - 46.4 °F 82% 29.82 in 2.0 mi East 17.3 mph 32.2 mph 0.02 in Rain Rain
4:16 PM 51.8 °F - 46.4 °F 82% 29.80 in 3.0 mi East 20.7 mph 32.2 mph 0.03 in Rain Light Rain
4:54 PM 52.0 °F - 48.0 °F 86% 29.77 in 4.0 mi East 16.1 mph 24.2 mph 0.05 in Rain Light Rain
5:27 PM 53.6 °F - 48.2 °F 82% 29.71 in 2.0 mi East 21.9 mph 29.9 mph 0.18 in Rain Heavy Rain
5:54 PM 54.0 °F - 48.9 °F 83% 29.70 in 3.0 mi East 20.7 mph 36.8 mph 0.25 in Rain Light Rain
6:04 PM 53.6 °F - 48.2 °F 82% 29.70 in 2.5 mi East 21.9 mph 28.8 mph 0.03 in Rain Rain
6:11 PM 55.4 °F - 50.0 °F 82% 29.69 in 2.5 mi ESE 25.3 mph 33.4 mph 0.03 in Rain Light Rain
6:30 PM 55.4 °F - 50.0 °F 82% 29.68 in 3.0 mi ESE 25.3 mph 35.7 mph 0.07 in Rain Rain
6:37 PM 55.4 °F - 50.0 °F 82% 29.67 in 2.5 mi ESE 25.3 mph 35.7 mph 0.08 in Rain Light Rain
6:47 PM 55.4 °F - 50.0 °F 82% 29.67 in 3.0 mi ESE 21.9 mph 34.5 mph 0.09 in Rain Light Rain
6:54 PM 55.0 °F - 50.0 °F 83% 29.66 in 3.0 mi ESE 25.3 mph 39.1 mph 0.09 in Rain Light Rain
7:34 PM 55.4 °F - 51.8 °F 88% 29.63 in 2.0 mi ESE 16.1 mph 26.5 mph 0.12 in Rain Rain
7:43 PM 55.4 °F - 51.8 °F 88% 29.62 in 9.0 mi ESE 18.4 mph 26.5 mph 0.12 in Rain Light Rain
7:54 PM 57.0 °F - 52.0 °F 83% 29.61 in 6.0 mi SE 9.2 mph 27.6 mph 0.14 in Rain Light Rain
8:54 PM 60.1 °F - 55.0 °F 83% 29.60 in 10.0 mi SSE 12.7 mph 18.4 mph 0.04 in   Overcast
9:54 PM 60.1 °F - 55.0 °F 83% 29.58 in 10.0 mi SSE 4.6 mph - N/A   Overcast
10:51 PM 59.0 °F - 55.4 °F 88% 29.55 in 1.8 mi Calm Calm - N/A   Overcast
10:54 PM 59.0 °F - 54.0 °F 83% 29.55 in 1.5 mi Calm Calm - N/A   Haze
11:06 PM 60.8 °F - 55.4 °F 82% 29.55 in 2.5 mi Calm Calm - 0.00 in Rain Light Rain
11:32 PM 60.8 °F - 55.4 °F 82% 29.56 in 3.0 mi WSW 6.9 mph - 0.00 in   Haze
11:54 PM 62.1 °F - 57.0 °F 84% 29.57 in 4.0 mi West 8.1 mph - 0.00 in   Haze